Theta_e
351 351 350 352 352 352 353 352 351 349 346 345 344 345 347 348 348 350 352 351 352 352 350 350 350 348 349 351 352 350 344 344 345 345 347 347 346 345 346 348 342 345 344
352 351 350 350 351 353 352 352 351 352 348 349 348 352 349 351 351 351 351 352 352 352 354 352 351 351 349 348 347 346 344 342 345 343 347 347 345 345 346 346 339 346 346
351 350 355 351 350 353 348 348 351 349 352 351 351 352 350 349 352 351 351 351 351 353 352 352 351 351 350 348 347 347 342 343 345 345 344 345 346 344 345 347 344 342 344
349 350 354 351 348 349 351 350 350 350 350 350 347 352 350 352 351 350 350 349 350 351 351 351 350 347 344 344 344 344 343 343 340 346 345 339 341 342 348 346 346 342 346
350 351 353 350 347 352 348 349 350 350 350 351 345 352 350 351 351 350 350 351 350 350 348 345 343 341 341 341 341 342 341 338 340 349 346 341 339 341 343 347 346 345 345
351 349 351 350 352 351 353 349 351 348 351 350 350 352 353 351 351 350 351 349 343 341 339 339 339 339 339 338 337 336 337 339 342 348 350 341 337 337 343 348 346 346 345
352 349 350 352 350 351 348 344 345 350 347 348 349 348 347 349 348 348 347 343 339 335 333 333 334 339 341 342 344 344 344 344 352 352 349 339 343 340 343 349 350 348 345
353 352 353 351 352 347 351 335 346 349 349 345 351 348 350 346 343 342 339 336 337 339 341 343 344 345 345 345 345 345 345 346 352 353 352 344 340 338 342 345 348 347 347
354 353 353 355 354 351 351 342 350 350 343 344 345 344 344 343 342 342 342 343 343 344 345 346 345 344 343 343 344 344 344 344 354 353 351 347 343 341 341 339 344 346 347
352 353 354 353 352 349 346 344 350 349 349 350 346 343 342 342 343 343 343 344 344 345 345 345 345 346 346 346 345 345 342 345 353 354 353 351 345 344 341 342 344 342 341
352 354 353 351 351 349 352 343 345 343 344 344 345 344 346 347 347 346 345 343 342 343 344 345 346 348 348 348 347 344 342 346 351 353 354 348 346 345 340 341 343 343 341
350 352 351 353 350 347 350 348 346 346 347 350 348 343 343 344 344 346 346 345 345 345 346 347 348 348 351 350 348 346 344 344 347 351 352 344 342 341 339 339 340 342 342
350 350 350 353 351 346 346 347 345 347 348 346 343 346 346 346 346 348 348 349 346 347 348 349 351 352 352 352 350 348 346 344 344 345 346 342 339 338 338 338 339 339 339
350 349 349 353 347 338 342 345 346 348 348 349 346 346 347 347 347 347 345 344 344 346 347 348 352 349 350 353 350 349 346 346 344 344 344 340 339 337 337 338 338 337 337
350 348 349 351 343 331 331 344 346 347 348 348 346 347 347 348 347 345 346 347 347 347 347 348 348 350 352 354 351 352 351 345 343 344 344 341 339 338 337 339 339 338 338
349 347 349 350 339 330 335 338 343 344 345 346 347 348 348 347 348 347 348 350 350 349 349 349 349 349 352 353 353 354 352 349 344 340 343 344 341 339 337 337 339 338 338
349 346 348 347 342 332 337 339 341 343 347 346 346 346 346 347 348 349 349 353 351 348 348 349 348 352 352 352 354 353 350 349 347 341 344 345 345 341 339 340 340 340 339
348 348 348 346 346 336 336 339 344 347 348 350 349 348 346 346 347 349 351 353 349 350 351 354 353 356 355 355 354 352 352 350 343 343 345 345 346 345 345 342 341 340 339
350 350 350 348 345 336 337 341 344 346 349 351 350 349 349 347 347 347 352 353 348 350 353 353 355 355 355 355 353 351 350 348 343 345 347 346 343 345 346 345 342 340 339
350 351 350 346 341 337 340 343 344 350 350 349 349 349 348 349 350 350 351 349 348 350 352 353 355 355 355 354 353 352 350 345 344 345 346 344 342 342 343 341 341 342 339
350 350 351 348 341 342 345 347 350 354 353 351 348 349 349 348 347 350 352 351 346 349 350 351 353 354 349 351 354 349 347 341 340 343 342 346 344 343 344 345 345 344 342
349 350 350 347 343 342 346 351 352 355 353 352 349 347 347 347 346 349 350 351 347 351 350 350 349 346 348 347 350 351 347 344 342 343 346 345 346 343 343 343 345 344 341
349 350 349 347 346 343 344 349 349 352 352 351 350 349 347 346 347 349 350 350 350 350 352 351 350 350 348 348 348 350 348 345 343 345 347 346 344 341 342 343 345 344 343
348 349 349 346 347 347 344 349 353 351 351 352 353 352 347 346 346 348 350 350 351 351 351 351 350 350 351 349 351 348 349 347 345 345 344 344 342 338 337 336 335 334 334
348 349 349 349 347 347 347 346 352 352 351 352 352 350 347 346 346 347 350 350 350 353 353 353 354 352 350 350 349 348 349 347 346 346 346 343 344 332 329 329 327 326 326
348 348 349 350 347 346 347 346 346 350 351 351 350 349 350 350 350 347 349 349 349 349 355 356 354 353 351 351 350 347 345 345 347 344 345 346 345 331 327 326 324 323 322
Wind_Speed
10 13 15 15 16 17 17 18 17 16 16 17 16 13 11 10 10 10 10 8 9 8 9 10 10 10 10 10 9 9 8 8 8 8 7 5 4 5 6 6 6 5 6
17 14 16 15 16 16 16 15 16 17 15 14 13 12 11 11 8 9 8 8 8 9 10 10 10 9 9 9 9 7 7 7 7 6 5 4 2 2 2 4 6 3 4
18 16 14 17 15 16 15 14 14 15 14 13 13 12 11 10 10 10 7 8 8 9 9 10 9 9 8 8 7 6 6 7 5 3 4 1 1 1 1 2 2 3 5
19 18 15 17 14 15 14 14 12 13 13 11 12 11 11 11 9 10 8 8 7 8 8 8 7 7 7 7 6 6 6 5 7 7 4 3 2 2 0 5 3 3 6
17 17 15 16 14 14 13 13 12 14 12 10 11 11 10 10 10 9 8 7 6 6 6 6 6 5 5 5 5 6 7 8 6 5 6 3 1 3 1 2 1 1 3
17 16 16 15 14 13 13 13 12 11 11 11 12 10 10 9 10 9 7 6 5 5 5 4 4 4 5 6 7 8 8 8 8 6 6 7 1 4 3 3 4 4 4
17 15 14 14 13 12 11 11 12 12 10 11 10 9 10 10 8 7 6 5 4 4 4 5 5 6 7 8 8 10 10 10 6 5 6 7 4 2 3 4 5 4 5
18 15 13 13 13 11 9 10 11 10 9 11 10 8 8 7 7 6 5 5 5 5 5 6 6 8 9 10 10 11 13 13 8 6 4 3 2 2 3 4 5 5 5
16 15 14 12 11 12 10 11 11 9 8 10 9 8 7 7 6 5 5 5 5 5 7 7 7 9 9 10 11 13 14 13 9 7 5 4 4 4 3 6 5 7 7
15 14 14 12 11 10 9 12 13 11 10 8 7 7 7 6 6 5 5 4 5 5 6 7 8 8 8 9 10 13 16 12 5 6 6 5 6 6 5 3 6 6 6
14 14 13 11 11 11 10 9 10 9 8 7 6 6 6 5 4 3 3 4 5 5 5 7 8 9 11 12 10 12 12 8 6 4 4 6 6 6 5 4 4 6 7
17 15 13 12 11 11 10 10 9 8 7 6 6 6 6 6 4 4 4 5 5 6 7 8 8 9 11 12 12 12 11 8 7 5 4 5 5 5 5 5 5 5 7
18 15 14 12 12 11 10 10 9 8 7 7 7 5 4 4 4 4 4 4 6 7 7 7 7 9 10 10 11 11 10 9 8 7 7 7 5 5 5 5 4 6 7
18 16 15 13 13 13 10 10 10 8 8 6 6 5 3 3 4 4 4 6 8 7 10 10 9 10 9 10 11 11 11 11 11 10 9 8 6 7 6 6 7 9 9
18 17 16 15 15 15 14 11 10 9 8 7 5 2 2 3 4 4 5 7 8 8 8 9 12 12 11 10 9 8 9 10 10 8 7 9 8 8 8 8 8 8 9
17 18 17 16 16 16 15 14 11 10 9 7 4 2 1 2 3 4 5 6 8 10 9 12 14 13 10 11 11 9 7 7 7 5 4 6 8 9 9 10 10 9 8
18 18 18 16 16 17 16 13 11 9 7 6 4 3 2 3 4 5 5 6 8 8 7 12 13 10 9 12 15 13 13 12 9 6 5 6 6 8 10 11 11 11 12
16 19 17 17 17 18 17 14 11 8 6 5 5 4 4 5 6 6 6 6 8 9 8 9 9 8 10 11 14 16 12 12 12 6 5 5 5 8 10 9 10 12 12
19 19 18 18 19 19 17 14 10 8 8 9 8 6 6 7 7 8 7 7 10 9 10 12 10 9 10 12 14 15 14 10 5 5 4 5 11 9 6 7 10 11 11
20 19 19 20 21 21 17 14 10 7 6 6 6 6 6 7 10 12 11 10 12 9 10 11 12 11 13 14 16 16 12 7 7 6 7 11 10 5 6 9 12 9 11
20 20 20 22 24 22 17 12 10 9 8 6 6 5 5 7 9 12 11 10 10 8 8 10 11 14 18 17 13 15 9 9 6 10 10 9 9 9 11 12 12 10 9
24 24 23 25 25 25 19 14 11 11 10 8 8 8 8 9 10 9 10 9 9 9 12 11 8 10 12 17 10 7 4 6 7 5 5 6 8 10 11 11 8 7 5
25 26 27 30 29 27 23 17 15 13 13 11 11 11 12 11 8 8 8 11 14 17 13 13 14 14 10 12 12 5 3 4 10 6 5 6 8 10 9 8 7 4 3
28 27 30 31 31 31 27 20 20 17 16 15 13 13 16 15 13 11 9 12 16 17 16 16 16 18 15 16 8 9 9 6 3 6 6 8 8 8 9 9 9 10 9
28 27 27 29 31 31 33 28 23 22 18 15 12 17 20 17 16 13 10 11 13 13 15 17 18 15 14 17 12 10 8 6 8 6 7 9 3 5 7 9 9 9 9
26 26 25 25 32 34 33 34 32 25 22 17 17 15 16 14 13 16 13 13 15 15 14 14 14 14 16 18 16 13 11 5 5 6 5 7 4 0 5 6 8 9 10
Wind_Direction
145 129 126 116 110 109 107 105 108 113 121 127 138 134 128 121 115 110 109 108 108 101 92 87 88 87 84 79 74 73 76 76 76 70 68 81 99 118 126 118 109 110 129
140 136 129 120 115 114 114 112 113 114 113 121 124 121 120 115 112 110 105 117 106 99 86 83 85 84 82 79 77 78 81 78 80 73 67 51 59 63 47 115 103 135 118
136 137 130 123 121 118 119 119 114 120 119 121 124 120 111 117 105 93 93 81 88 83 80 78 74 71 68 65 62 50 39 32 38 26 343 351 225 222 286 177 94 135 157
140 140 133 128 126 126 123 118 121 118 122 118 119 112 119 113 105 104 106 101 96 83 71 69 63 60 54 45 35 26 21 5 0 333 5 37 187 243 271 172 163 173 156
143 144 140 133 128 124 124 125 126 125 123 118 114 117 107 108 106 104 102 101 99 82 73 62 50 37 29 14 358 344 336 336 342 346 352 331 249 230 167 148 290 183 161
146 149 149 141 132 132 129 131 121 123 122 113 118 116 114 107 103 98 97 95 86 74 63 52 33 2 347 339 335 328 328 329 342 337 341 341 293 203 188 198 207 201 188
149 150 149 143 140 137 138 136 137 129 133 122 115 117 118 110 105 105 99 91 71 55 42 33 22 5 349 343 338 336 331 327 321 315 335 7 17 202 211 198 209 219 208
150 150 152 152 146 141 138 130 130 128 129 130 127 121 112 111 101 94 90 85 70 55 42 25 14 5 351 342 337 329 321 314 300 284 284 324 321 314 257 228 215 232 240
153 150 151 151 147 145 153 138 130 124 120 127 126 120 112 103 97 93 83 74 59 38 27 20 15 9 355 349 341 337 332 317 289 274 274 284 298 329 310 249 233 230 244
154 153 155 155 154 150 151 148 142 146 137 128 122 115 112 107 104 94 82 52 49 36 33 27 19 6 359 354 356 354 356 1 323 287 277 275 304 317 330 291 233 240 248
161 162 161 160 158 156 152 152 147 140 134 123 113 113 104 100 90 79 60 50 42 32 17 13 15 11 357 357 356 358 5 5 360 337 287 285 295 308 318 306 260 263 268
168 171 170 166 164 163 156 154 148 145 145 135 128 117 107 98 80 47 37 35 28 18 14 10 10 5 359 360 359 1 2 359 5 355 321 307 287 294 305 308 288 286 287
171 175 178 177 174 174 171 157 150 150 145 138 129 122 108 79 48 19 14 16 24 24 18 17 15 6 359 2 5 1 353 353 345 341 327 319 301 293 298 293 287 283 280
177 181 180 181 183 181 176 167 160 158 155 150 144 126 90 55 31 349 357 10 21 11 11 6 3 348 355 358 355 358 353 338 328 320 321 319 298 285 285 291 298 296 294
182 184 184 183 186 181 177 176 166 164 163 159 154 136 94 49 31 30 30 20 10 357 355 351 341 340 338 351 347 339 342 340 333 308 307 315 296 286 287 297 304 306 307
190 187 187 186 190 183 182 179 172 169 171 179 184 192 257 355 12 13 17 7 356 342 332 331 328 333 340 338 335 327 332 337 330 337 300 303 286 271 266 269 276 282 288
195 187 188 185 188 186 186 183 185 177 184 192 197 210 267 313 322 328 343 359 360 353 348 341 346 352 355 339 330 343 335 335 330 324 326 307 293 281 275 272 271 271 274
188 189 183 184 189 188 189 184 186 192 207 220 231 239 271 281 293 308 307 321 333 330 329 334 349 344 331 330 329 332 337 333 325 318 325 327 309 293 290 274 271 273 275
190 187 184 187 190 188 190 191 198 222 246 243 239 250 256 269 280 287 292 300 301 306 321 324 326 327 324 325 322 322 333 340 340 317 337 348 329 309 289 298 303 288 274
191 190 187 189 190 190 193 199 213 234 225 213 221 239 254 272 280 275 281 293 304 308 316 317 324 326 325 326 323 320 327 336 341 314 300 321 331 329 319 317 314 293 284
195 190 190 190 192 191 194 201 210 212 206 213 213 215 246 281 299 271 266 288 300 296 304 332 329 337 333 330 324 330 320 326 349 329 314 334 336 330 325 317 315 299 294
196 198 197 198 199 198 200 204 203 202 210 217 224 235 256 277 294 279 277 290 293 291 303 314 316 303 336 323 306 307 314 313 314 346 341 343 345 338 332 327 317 314 297
202 200 202 202 205 207 205 208 212 218 224 229 233 240 251 267 287 295 296 296 300 295 295 300 307 311 317 303 296 276 296 295 323 310 339 344 355 4 8 14 19 14 326
208 205 206 207 207 212 212 208 210 218 221 226 228 238 252 262 273 286 294 308 309 291 292 303 300 304 303 307 297 272 254 261 288 306 320 339 356 27 38 43 48 48 45
210 209 207 208 211 212 216 214 216 225 233 235 237 246 248 255 262 266 293 308 316 313 312 314 306 293 302 298 277 268 238 243 263 268 306 334 334 40 49 48 44 41 31
212 210 206 206 213 216 217 219 221 223 229 234 237 242 244 249 255 259 272 291 303 315 319 320 320 313 316 307 288 266 265 227 265 270 277 292 290 77 57 45 32 23 12